Wind_Speed
14 14 14 14 14 14 14 13 13 13 15 15 15 16 17 16 16 15 15 15 15 13 12 10 9 8 7 7 7 8 8 9 9 9 8 8 7 8 8 7 7 7 7 7 8 8 8 8 8 7 7 7 7 7 7 7 7 8 7 7 7 8 7 7 7 7 7 7 8 9 10 10 11 12 12 12 13 14 16 18 19 19 19 19 18
15 14 15 15 15 15 14 14 14 14 15 15 15 16 17 17 17 16 16 16 16 14 12 10 9 8 8 7 7 8 9 9 9 9 9 8 8 8 8 7 7 7 7 7 7 7 8 8 8 8 7 7 6 7 6 6 6 6 7 7 6 6 6 5 5 5 5 6 7 8 9 10 11 11 12 13 14 15 16 18 18 19 20 19 18
16 15 15 16 16 15 15 15 15 15 14 14 14 15 17 18 18 17 17 17 16 14 12 11 10 9 9 8 8 9 10 10 9 9 9 8 8 8 8 8 7 7 7 7 7 7 7 8 8 8 8 7 6 6 6 6 6 6 6 6 6 6 5 4 4 3 4 5 6 8 9 10 11 11 12 13 14 16 17 17 17 19 19 18 18
16 16 16 16 16 16 16 16 15 15 14 14 14 15 17 18 19 18 17 17 16 15 13 12 11 10 10 10 10 10 11 11 10 9 8 8 8 8 8 8 7 7 6 6 6 6 7 7 8 8 8 7 7 6 5 5 5 5 6 6 6 5 5 4 3 3 4 4 6 8 8 10 11 12 13 14 15 16 17 17 17 17 18 18 17
16 16 17 17 17 16 16 16 16 15 15 15 15 15 17 18 19 18 17 17 16 16 14 13 13 12 12 12 12 11 11 11 10 9 9 8 8 8 8 8 7 7 6 6 6 6 6 6 7 7 8 8 7 6 6 5 4 5 6 6 6 5 5 4 3 3 4 5 6 8 9 10 11 13 14 15 16 17 17 17 17 17 18 18 17
16 16 18 18 18 17 16 15 15 16 15 15 15 15 16 17 18 17 17 16 16 16 15 14 14 13 13 13 13 12 11 11 11 10 10 9 9 8 8 8 7 7 7 6 6 6 6 6 7 7 7 7 7 7 6 5 4 4 5 6 6 5 5 4 4 4 5 6 7 9 10 10 11 13 15 15 16 17 16 17 17 17 17 17 16
17 18 18 19 19 17 16 15 15 15 16 15 15 15 15 16 17 17 16 16 16 17 17 16 15 14 14 14 13 12 11 11 11 12 11 10 9 9 9 8 7 7 7 7 7 7 7 7 7 7 7 7 7 7 6 6 5 4 5 5 6 6 5 5 5 5 5 6 8 9 11 12 12 12 14 15 16 17 16 16 16 16 17 16 15
19 19 19 19 19 17 17 17 16 15 15 15 15 16 16 16 17 18 17 16 17 18 19 17 16 15 14 14 13 12 11 12 13 13 13 12 10 10 9 8 7 7 7 7 7 7 7 7 7 7 7 7 7 7 6 6 5 5 4 5 5 5 5 5 6 6 6 7 8 10 11 12 12 13 14 14 15 16 15 15 15 15 16 15 14
19 19 19 19 18 18 19 18 17 15 14 15 15 16 16 16 17 18 18 18 18 19 20 19 17 15 15 14 13 12 12 12 13 14 14 13 12 11 10 9 8 7 7 7 7 7 7 7 7 6 6 7 6 6 6 6 6 5 5 5 5 5 6 6 6 7 7 8 9 10 11 12 13 13 13 14 14 15 15 15 15 15 15 15 14
19 19 19 19 18 18 18 17 16 15 14 14 15 15 16 16 17 18 19 20 20 20 21 21 18 16 15 14 12 12 12 13 14 14 14 14 13 11 10 9 8 7 7 7 7 7 7 8 8 7 7 7 7 6 6 5 5 5 5 5 5 5 6 6 6 7 8 9 10 10 11 11 11 12 13 13 13 14 13 13 14 14 15 15 14
20 21 21 21 20 18 17 17 16 16 16 16 15 15 16 16 17 18 19 20 21 22 22 22 20 17 15 13 12 12 13 14 15 14 14 14 13 12 11 9 8 7 7 7 7 7 7 8 8 8 7 7 7 6 5 5 4 4 5 5 5 5 6 6 6 7 8 10 10 11 11 11 10 11 12 13 13 12 12 13 13 13 14 14 14
19 21 21 22 20 19 19 18 18 18 17 16 16 16 16 17 17 18 18 20 22 23 23 23 21 19 15 13 12 13 14 16 15 15 14 14 13 12 11 10 8 7 7 6 6 6 7 8 8 8 7 7 6 6 5 4 3 3 4 5 6 6 6 7 7 7 8 10 11 11 12 12 11 11 11 12 12 12 12 12 12 13 14 13 13
19 18 18 19 19 19 20 20 19 19 18 17 17 18 18 18 18 18 19 20 22 23 24 24 23 20 16 14 14 14 16 17 16 15 14 15 14 13 12 10 9 8 7 7 7 7 7 8 7 7 7 6 6 5 4 3 2 3 4 5 6 6 7 7 8 8 9 10 11 11 11 11 11 11 11 11 11 11 11 11 11 12 13 13 13
21 20 18 19 20 21 21 21 20 19 18 18 18 19 20 19 19 20 20 20 21 23 24 24 24 21 18 16 15 16 18 18 17 16 15 15 16 15 13 11 10 9 8 8 8 8 8 8 8 7 7 6 6 5 4 3 3 3 4 4 5 6 6 7 8 9 9 11 11 11 11 11 11 11 11 11 11 11 11 11 11 11 11 12 12
22 21 20 20 21 21 22 21 21 22 21 20 20 20 21 20 21 22 21 20 21 22 24 25 24 22 19 17 17 18 19 19 18 17 16 16 17 16 14 12 11 10 9 9 9 9 9 9 9 8 7 7 6 5 4 3 3 4 4 4 4 5 5 7 9 9 10 11 12 12 12 11 11 11 11 10 10 10 10 10 11 10 10 10 10
23 22 22 22 21 21 22 22 23 24 23 22 22 21 21 21 23 24 23 22 22 23 24 25 25 23 20 19 19 20 20 20 19 18 17 18 18 17 16 14 13 11 11 11 11 11 11 10 9 8 8 7 6 5 4 3 3 4 4 4 4 5 6 7 8 9 9 10 11 12 12 12 12 11 10 10 10 10 10 10 10 10 10 10 9
24 24 25 24 22 21 22 23 23 24 24 23 23 23 23 24 25 24 23 22 22 23 24 24 24 24 22 20 20 20 21 20 20 19 18 18 19 19 17 16 15 14 13 13 12 12 11 11 10 9 8 7 6 5 4 4 4 4 4 4 5 5 6 7 7 8 9 9 10 11 12 12 12 12 11 10 10 10 10 9 9 9 9 9 9
25 26 26 26 25 21 19 20 21 22 24 25 25 25 25 25 26 25 23 23 23 23 24 24 25 24 23 21 21 21 20 20 20 19 18 18 19 20 19 18 17 16 15 14 14 13 12 11 10 9 8 7 7 6 5 5 5 5 5 5 5 6 7 7 7 8 8 8 9 10 11 11 12 12 11 11 11 10 10 9 9 8 8 8 8
27 28 27 27 27 23 20 18 19 23 27 27 27 27 27 25 26 26 23 23 24 23 22 22 23 24 23 22 21 21 20 20 19 18 18 19 19 20 20 20 19 18 17 16 15 14 13 12 11 10 9 8 7 7 6 6 6 5 5 5 6 6 7 8 8 8 8 8 8 9 10 11 11 11 11 11 11 11 11 10 10 9 8 8 7
28 29 27 26 26 25 23 22 22 24 27 27 27 27 27 26 25 24 23 22 22 21 19 20 21 22 22 22 21 20 20 19 19 18 19 19 19 19 20 20 19 19 18 17 16 15 14 13 11 10 10 9 8 8 8 7 7 7 6 6 7 7 7 8 8 8 8 8 8 8 9 9 10 10 10 10 11 10 10 11 10 10 10 9 9
29 29 28 27 26 25 24 23 25 24 22 24 26 27 28 27 26 24 22 21 20 19 19 20 21 22 23 22 22 21 20 19 19 19 19 19 19 19 20 20 20 20 19 18 17 16 15 14 12 11 10 10 9 9 8 8 8 8 7 7 7 7 8 8 8 9 9 9 9 9 8 8 8 9 9 9 9 9 9 10 10 10 10 10 10
29 29 28 27 27 26 25 25 26 24 20 21 24 26 28 27 25 24 21 20 20 20 21 22 23 25 24 23 23 22 21 20 19 19 19 19 19 20 20 21 21 21 20 19 18 17 16 14 13 12 12 11 10 10 9 9 9 9 9 9 8 8 8 9 9 9 10 10 9 9 9 8 8 8 7 7 7 8 8 9 9 9 10 10 10
30 30 30 29 28 26 26 26 26 25 23 21 20 22 24 25 24 24 22 20 20 21 22 23 23 24 24 24 24 24 23 22 21 20 20 20 21 20 21 21 22 22 22 21 19 18 17 15 14 14 13 12 11 10 10 10 10 10 10 10 9 9 9 9 10 10 10 10 10 10 9 9 8 8 7 6 6 6 7 7 7 8 8 9 9
32 31 31 32 31 28 27 26 26 26 26 23 19 18 21 22 22 23 23 22 21 21 22 22 22 22 22 22 23 24 24 24 23 21 20 21 21 22 22 22 23 23 23 22 20 19 17 16 15 15 14 14 13 11 11 11 11 11 11 11 10 10 10 10 10 11 11 11 11 10 10 9 8 8 7 7 7 7 6 6 6 7 7 8 8
33 33 32 33 33 32 29 27 26 27 27 25 20 18 20 20 18 20 23 23 22 21 22 22 21 20 20 21 23 24 24 25 24 23 22 21 21 22 23 23 23 23 23 23 21 20 19 18 17 16 15 15 14 12 12 11 12 12 12 11 11 11 10 11 11 12 12 11 11 10 10 9 9 8 8 8 8 7 7 7 7 7 8 8 8
35 34 33 34 34 34 31 29 28 27 27 26 24 22 23 22 20 19 22 24 22 21 22 21 21 21 21 22 23 24 25 25 25 25 24 22 21 22 23 23 23 23 23 23 22 21 20 19 18 17 16 16 15 13 13 12 12 13 12 12 12 12 11 11 12 12 12 12 11 11 10 9 9 8 8 8 7 7 7 7 7 8 8 8 8
37 36 34 35 35 33 30 29 29 28 27 26 25 25 25 25 24 22 21 22 22 23 24 22 21 22 22 22 23 24 25 26 26 25 24 23 22 22 22 23 23 23 23 24 23 22 22 21 20 19 18 17 16 14 13 13 13 13 13 14 14 13 13 12 12 12 12 12 11 11 11 10 9 8 8 8 7 7 7 7 7 7 8 8 7
39 38 37 36 35 33 31 30 30 30 29 28 26 27 27 27 26 25 22 21 21 23 25 25 24 23 23 23 23 24 25 25 25 25 25 24 23 22 22 23 23 22 23 24 23 23 23 22 21 20 19 18 17 15 14 13 13 14 15 15 15 15 14 13 13 12 12 12 12 12 11 10 10 9 8 8 7 7 7 7 7 7 7 7 7
41 40 39 38 37 36 35 33 32 32 32 31 29 29 28 28 28 27 25 23 21 22 24 26 27 25 24 24 24 25 26 26 26 26 27 26 26 24 23 23 23 22 23 24 24 24 24 23 22 21 20 20 18 16 15 14 14 14 15 16 16 16 15 14 14 13 12 12 12 12 12 11 10 10 9 9 8 8 8 7 8 8 8 8 8
43 41 40 40 40 40 38 37 36 36 35 34 33 32 31 30 31 30 27 25 23 21 22 25 26 27 26 26 26 26 27 27 28 28 29 29 28 26 25 25 24 23 24 24 24 24 24 24 24 23 22 21 20 18 16 15 15 15 16 16 16 16 16 15 15 14 13 13 13 13 12 12 11 11 10 10 10 9 9 9 9 9 9 9 9
46 44 43 43 43 42 41 39 39 38 38 37 36 35 34 33 32 31 30 28 25 24 23 23 25 27 28 28 27 27 26 26 26 28 28 29 29 29 28 26 25 25 24 24 24 24 25 25 25 24 23 22 21 20 19 17 17 16 16 16 16 16 16 16 15 15 14 14 14 14 13 13 12 12 12 12 12 11 11 11 11 11 10 10 10
48 47 46 46 45 45 44 42 40 40 40 40 39 38 37 36 35 34 32 31 30 28 26 25 25 27 28 29 29 28 27 26 26 27 27 28 30 31 30 29 28 27 27 26 25 25 25 25 26 25 25 24 23 23 21 20 19 17 16 16 16 16 16 16 15 15 15 15 15 14 14 14 13 13 13 13 13 13 13 13 13 12 11 11 12
48 48 48 47 47 47 46 44 43 42 42 42 41 41 40 39 39 37 36 35 34 33 31 30 28 28 29 29 30 30 30 29 29 28 27 28 30 31 31 30 30 30 29 28 27 26 25 26 26 26 26 26 25 25 24 23 23 21 19 18 17 17 16 16 16 16 16 16 15 15 15 15 15 15 15 14 14 14 15 15 14 14 14 14 14
47 48 48 48 48 48 47 47 46 44 44 44 44 43 43 42 42 41 39 38 38 37 35 34 33 31 31 31 32 32 31 31 31 31 30 29 29 31 32 32 32 32 31 30 29 28 28 27 26 26 26 27 27 27 26 26 26 25 23 22 20 19 18 17 16 16 17 17 17 16 16 16 16 16 17 17 17 17 17 17 16 16 16 17 17
46 47 48 49 49 48 48 49 48 47 46 46 46 46 45 44 44 44 43 42 41 40 38 37 37 35 34 34 34 34 32 32 33 33 32 31 29 30 32 33 34 34 33 32 31 30 30 29 28 27 27 27 27 27 28 28 29 29 27 26 24 22 20 19 18 18 18 18 18 18 18 18 19 19 19 20 20 21 20 20 19 19 19 19 19
46 47 48 48 48 48 49 50 50 50 49 48 48 48 47 46 46 46 46 45 44 43 42 41 41 40 39 37 36 36 35 35 35 34 34 33 32 32 33 34 35 35 34 33 32 31 31 31 30 30 28 27 28 28 28 29 30 31 31 29 27 25 23 22 21 20 20 20 20 20 20 20 21 21 22 23 24 24 24 23 23 22 22 22 22
47 47 48 48 48 48 48 49 50 50 50 50 50 49 49 48 47 47 47 48 47 46 44 45 44 43 42 40 38 38 38 37 36 34 34 35 34 33 31 31 32 33 32 31 30 30 30 30 30 31 30 28 29 29 29 30 31 32 32 31 29 28 27 25 24 23 23 22 22 22 22 23 23 24 25 26 27 28 27 26 25 25 25 25 25
48 48 48 48 48 48 48 48 48 49 49 49 50 50 50 49 48 48 48 48 49 48 47 47 46 44 42 41 40 39 39 38 37 36 36 36 35 33 30 29 30 30 29 30 30 29 30 31 30 30 30 30 30 31 31 31 32 33 32 31 30 30 29 28 27 26 26 25 25 25 25 25 25 26 28 29 29 30 30 29 28 28 28 27 28
50 50 49 48 48 49 48 48 48 48 48 48 48 49 49 49 49 49 49 49 49 49 49 50 49 46 45 44 44 43 43 42 40 39 38 37 35 34 33 32 32 29 28 30 31 30 29 31 32 31 31 31 32 33 33 33 33 34 33 32 32 31 30 29 29 29 29 29 28 28 27 27 27 28 29 30 31 32 32 31 31 29 28 29 31
52 52 50 50 50 50 49 49 49 48 48 47 47 47 48 48 48 49 50 50 50 50 50 51 51 51 49 48 47 46 45 46 45 43 40 39 37 35 34 34 33 31 30 30 32 30 29 29 30 31 31 31 32 33 34 34 35 35 35 34 33 32 31 31 31 32 31 31 30 30 30 30 30 30 31 32 32 32 32 32 31 29 28 30 32
53 53 53 53 52 51 50 50 50 49 49 49 48 48 47 48 48 48 49 50 50 51 51 51 52 53 52 52 51 49 46 46 46 46 43 40 37 35 36 36 34 33 32 31 31 32 30 29 29 29 30 31 32 33 35 36 36 36 37 36 35 33 33 34 34 33 33 33 32 32 32 32 33 33 34 34 33 33 33 33 31 29 29 31 33
54 54 55 55 54 53 53 52 52 52 52 51 50 50 49 49 49 48 49 49 50 51 51 51 52 53 54 54 54 54 52 49 46 46 45 42 39 36 36 36 35 35 35 34 33 33 32 30 30 29 28 29 30 32 35 38 39 38 38 38 37 36 36 36 36 35 35 35 35 35 34 34 34 35 35 35 35 34 33 32 31 31 31 32 32
56 56 56 56 56 55 55 55 55 54 54 54 53 52 51 51 51 51 51 50 50 51 51 51 52 54 55 55 55 56 56 54 51 49 46 45 43 40 38 36 34 35 36 36 35 34 33 33 32 32 31 29 29 30 32 36 39 40 41 41 40 39 39 39 38 37 37 37 37 37 36 35 35 35 36 37 36 35 33 32 32 33 33 33 33
59 59 59 58 57 57 57 57 57 57 57 56 56 55 54 54 54 54 54 53 52 52 52 53 53 54 55 56 56 56 56 55 55 54 51 48 46 44 43 40 37 36 36 36 36 36 36 35 34 35 35 34 33 32 33 35 37 39 41 42 42 41 41 41 40 39 39 39 39 39 38 36 36 36 37 37 37 35 34 33 33 34 35 34 33
61 61 61 61 60 60 59 59 60 60 60 59 59 58 57 57 57 57 57 56 56 55 54 54 55 55 56 56 56 57 56 56 55 55 54 52 50 47 46 44 42 40 39 38 37 37 38 38 37 37 39 39 39 38 36 34 34 36 38 40 42 44 44 43 42 41 41 41 41 39 38 37 37 37 37 37 36 35 35 34 35 35 36 35 34
61 62 63 63 63 63 62 62 62 63 63 63 62 61 60 59 60 60 60 60 59 58 58 57 57 57 57 58 57 57 57 57 56 55 54 54 52 51 49 47 44 43 42 41 39 39 40 41 41 41 40 38 39 39 36 33 31 32 34 35 38 42 44 45 45 44 43 42 42 41 40 39 38 37 36 36 36 35 35 34 34 35 35 35 35
59 61 62 64 65 65 65 65 64 65 66 66 65 64 63 63 62 62 63 63 62 62 61 60 60 60 60 60 60 59 59 58 58 57 56 54 53 52 51 50 48 46 44 43 42 43 43 43 43 43 41 37 36 35 34 35 35 33 32 33 34 37 40 43 43 43 43 43 43 44 43 40 37 36 35 35 34 33 32 32 33 34 34 34 34
57 58 60 62 64 65 67 67 67 67 67 68 67 67 67 66 65 65 65 65 65 65 64 63 63 63 62 62 62 62 61 61 60 59 58 56 55 53 52 51 51 50 48 47 46 46 46 45 44 43 42 40 38 36 35 36 38 36 33 33 33 34 37 41 41 40 41 42 43 44 42 38 35 34 33 32 30 29 29 30 30 30 31 31 31
55 56 57 59 61 63 65 67 68 69 69 69 70 69 69 69 69 68 68 67 67 67 67 66 66 66 65 65 65 64 63 63 62 62 61 59 57 56 54 53 52 51 50 50 50 49 49 48 46 44 42 41 40 40 37 36 37 37 36 35 34 33 35 38 39 38 38 39 39 39 37 33 32 31 29 27 27 26 26 25 25 25 26 27 27
57 57 58 58 59 61 62 64 66 68 69 70 71 71 72 72 72 72 71 70 70 69 69 69 68 68 68 68 68 67 66 65 64 64 63 62 60 59 57 55 54 52 51 51 51 50 50 49 48 47 45 42 40 41 40 38 36 37 37 37 37 36 35 36 37 37 36 33 31 30 29 29 29 29 27 25 24 24 22 21 22 22 23 24 25
59 59 60 60 61 62 62 63 64 66 68 69 70 72 73 74 74 74 74 74 73 72 71 70 70 70 70 70 70 70 69 69 67 66 66 65 63 62 60 58 56 55 53 52 52 51 50 50 49 47 47 45 43 42 43 42 39 37 38 40 41 40 37 35 36 36 33 29 25 23 25 28 30 30 28 26 25 24 24 24 25 25 24 25 25
Wind_Direction
187 186 182 180 181 181 183 183 182 186 188 191 193 193 193 194 194 192 194 194 193 192 189 187 187 185 190 193 190 186 183 178 172 171 172 171 169 165 160 154 152 148 147 148 147 147 145 143 146 146 142 139 132 129 126 124 123 122 122 123 124 125 126 125 123 122 116 106 99 95 92 93 98 103 106 105 104 107 113 120 121 116 115 116 117
186 187 186 184 184 186 186 185 188 191 191 193 195 195 195 195 196 196 197 197 196 196 192 189 191 192 193 196 195 190 190 189 182 177 176 177 177 176 172 166 164 161 158 159 157 156 156 155 157 157 156 152 141 136 133 127 126 128 127 128 131 132 133 134 134 132 121 109 102 99 97 99 103 108 110 108 110 116 118 120 120 117 118 121 121
190 188 189 189 188 189 189 189 193 195 194 195 196 197 197 196 197 198 200 199 197 198 195 191 193 195 196 198 199 195 193 194 191 184 180 182 184 184 183 177 174 173 170 171 172 172 170 167 165 163 162 160 152 145 140 134 135 138 136 134 134 136 139 142 143 141 124 110 106 105 105 106 109 111 111 109 113 119 122 121 117 116 119 123 123
196 193 194 196 196 195 194 193 196 197 195 196 197 198 197 197 198 199 201 200 199 199 196 194 196 199 200 200 202 201 196 195 195 193 189 188 189 189 189 185 181 181 182 182 183 185 182 177 174 170 168 167 162 157 152 147 147 145 139 138 137 135 138 139 143 149 138 116 108 110 112 113 115 115 114 116 119 123 125 122 119 120 123 125 124
203 202 199 200 204 205 202 199 197 197 197 197 198 198 196 198 199 200 201 200 199 199 198 197 199 203 206 205 207 206 198 195 196 199 199 196 195 194 192 189 186 184 186 189 189 189 189 187 184 177 173 171 168 168 164 160 157 149 142 143 142 137 137 137 143 153 144 128 118 117 117 117 120 120 120 123 126 127 127 124 123 124 126 127 127
219 216 208 203 206 211 211 206 202 200 201 201 200 199 198 197 199 201 203 201 198 199 200 201 202 207 210 211 213 210 201 197 197 201 204 202 200 199 197 192 189 187 187 190 188 189 190 190 188 181 175 171 169 167 162 164 166 156 148 146 142 140 140 139 143 152 144 134 128 126 124 121 122 123 124 128 128 128 128 125 125 128 129 130 129
226 223 218 210 207 211 215 213 210 206 204 205 203 202 200 198 198 200 203 202 199 199 200 203 207 210 212 214 215 211 205 200 198 202 205 205 203 203 201 196 193 188 186 187 185 186 189 188 186 181 175 170 165 161 158 162 164 156 153 149 144 142 144 144 143 149 145 136 131 129 127 125 124 124 126 129 130 129 128 125 126 129 131 131 128
223 220 222 218 209 209 214 215 214 210 207 207 206 205 203 200 198 197 199 201 200 200 200 203 210 214 215 217 218 212 207 205 203 203 203 204 204 204 204 200 196 190 185 187 185 185 187 186 183 179 175 169 163 159 156 157 155 154 159 155 150 147 148 149 145 145 145 138 133 132 130 128 127 126 127 130 131 130 130 127 126 127 129 129 125
218 215 219 221 216 213 213 214 215 213 210 209 209 209 207 204 201 198 197 197 199 200 201 203 210 216 218 220 221 216 211 210 209 207 204 204 203 203 204 202 199 194 188 188 188 187 188 185 181 177 175 170 164 160 157 157 155 155 159 159 159 156 153 152 148 147 146 142 139 136 133 131 129 128 128 130 131 131 131 129 129 130 130 128 125
222 218 216 220 223 222 218 217 218 216 213 211 212 214 212 209 206 203 200 197 197 199 201 203 207 214 220 220 221 219 215 214 213 211 208 206 205 204 204 202 200 198 194 191 189 190 192 190 182 177 178 174 168 167 164 163 163 157 158 162 167 165 156 153 150 151 149 146 144 140 135 133 131 130 130 131 132 133 133 131 131 132 131 130 129
218 215 214 218 220 222 224 223 223 221 216 212 212 216 215 213 211 208 205 200 198 198 200 203 205 210 217 219 218 218 218 217 214 213 212 210 209 207 206 205 200 200 202 197 193 194 198 198 187 180 185 180 170 172 169 168 171 165 163 165 169 167 158 152 151 156 155 151 149 144 140 140 138 135 134 134 135 135 135 134 133 133 132 133 134
216 208 211 217 218 222 226 225 225 223 218 214 214 216 215 215 215 213 210 205 201 199 200 203 205 208 212 215 215 214 218 220 216 214 213 212 212 210 209 207 202 201 204 201 200 205 205 204 195 187 191 185 174 176 173 169 174 173 170 168 166 163 160 157 156 160 162 157 155 150 147 147 146 142 139 137 136 137 137 136 137 138 138 140 141
234 225 225 226 225 229 228 223 224 224 220 217 216 215 216 217 217 216 214 210 205 202 200 202 206 207 207 208 211 212 216 220 218 214 212 213 214 211 209 208 204 202 204 204 207 216 216 210 203 198 197 193 186 183 174 172 180 175 172 169 166 163 161 162 162 163 166 165 162 158 155 154 151 148 146 142 140 140 139 137 139 142 145 147 149
238 237 237 236 235 235 230 225 225 224 221 219 216 215 216 217 217 217 216 213 210 206 203 203 206 207 205 203 206 211 216 218 218 214 210 212 214 212 209 207 205 205 207 208 211 219 221 214 208 206 206 204 199 191 179 177 179 175 175 174 171 169 164 164 167 169 171 172 170 168 165 162 158 155 153 147 141 140 140 140 141 146 151 154 155
239 236 234 237 237 235 234 233 228 223 221 219 218 218 217 218 220 218 215 213 212 210 207 205 206 207 204 201 203 210 216 217 216 213 208 209 213 212 209 206 206 207 211 213 214 219 222 218 211 209 210 211 209 205 194 183 175 172 179 179 172 173 174 172 175 177 176 177 177 176 174 172 168 164 161 153 144 141 141 143 145 148 154 157 157
240 237 235 234 233 235 237 235 230 224 220 218 219 219 219 222 224 220 215 213 212 212 211 208 206 206 204 202 203 210 216 216 213 211 208 207 209 211 209 206 204 205 210 214 215 220 223 220 215 212 212 212 211 212 207 193 181 176 181 183 178 182 186 182 182 184 183 183 183 183 183 181 178 175 170 163 156 151 148 148 149 152 156 158 158
238 237 238 233 230 235 233 226 227 228 223 219 219 220 219 223 228 226 220 217 216 214 213 211 208 207 205 205 206 211 215 216 213 209 208 207 206 208 208 205 203 203 208 214 217 219 222 222 219 216 216 215 212 214 212 202 193 186 184 186 189 191 192 190 190 194 192 190 189 190 190 188 184 184 182 177 171 164 159 157 156 156 157 159 162
241 241 240 235 233 236 232 224 226 229 226 220 218 220 220 222 227 227 224 222 221 218 215 212 211 209 208 208 211 215 217 219 216 210 209 208 206 207 207 206 204 204 207 213 218 220 220 222 221 219 220 219 214 211 209 203 200 197 192 192 195 197 198 197 196 200 202 198 196 196 197 195 191 190 189 187 184 178 172 171 169 167 163 163 165
242 243 242 241 243 246 247 243 237 236 233 226 221 221 222 224 227 226 223 220 219 220 218 217 215 212 212 213 216 220 223 224 222 215 211 211 208 208 209 208 207 208 208 210 217 220 221 222 222 221 222 221 214 207 202 198 197 199 196 196 200 201 204 205 202 203 206 206 205 204 203 202 199 196 194 193 193 189 186 185 184 184 181 178 178
241 242 243 245 248 249 251 253 249 244 238 229 225 225 224 225 226 223 222 219 218 220 220 220 221 219 218 220 223 226 229 231 230 225 218 214 211 210 212 212 212 212 211 211 215 218 220 222 223 222 222 220 215 206 200 195 193 196 197 198 205 206 208 210 207 207 208 209 210 210 209 209 208 206 203 201 200 197 196 195 195 196 197 197 198
240 242 243 244 246 246 246 249 250 248 241 231 231 231 227 223 220 220 223 223 224 225 221 219 220 220 220 222 226 230 235 238 238 236 231 223 216 213 215 217 217 217 216 213 214 216 218 222 224 223 222 220 216 209 203 197 193 194 196 199 206 209 210 212 211 211 211 210 211 212 212 213 214 213 212 211 209 206 206 205 205 206 207 209 212
240 243 244 244 245 246 246 246 246 249 250 242 232 227 226 224 221 223 224 224 227 227 222 222 221 218 217 218 223 228 233 240 242 242 240 235 227 218 217 220 221 222 221 218 216 215 216 220 223 224 222 220 218 214 209 203 197 196 197 200 205 208 211 213 213 214 214 213 212 213 214 214 215 216 215 215 215 213 213 213 214 215 216 218 221
240 243 244 244 244 245 248 247 244 245 248 244 234 227 229 230 227 228 226 224 230 229 225 226 226 224 221 217 221 225 227 234 239 241 241 240 237 229 222 222 225 226 225 222 219 216 216 219 222 224 223 221 220 217 214 209 203 200 200 202 204 206 210 212 213 214 215 214 213 214 215 216 217 218 217 217 218 217 216 216 218 220 222 225 228
238 241 243 244 244 244 248 250 248 245 244 246 249 242 238 235 230 230 228 224 226 229 230 230 228 228 229 225 224 226 227 230 236 239 239 239 241 239 232 227 227 229 229 227 223 219 218 220 222 224 223 223 222 219 218 214 209 206 205 207 207 207 208 211 212 214 215 215 216 217 218 220 221 222 221 222 222 223 224 224 225 227 228 231 234
235 238 241 244 245 245 247 249 250 249 248 253 261 254 246 245 238 231 229 225 222 225 231 235 232 230 232 232 230 230 230 231 234 237 239 238 240 242 240 235 232 232 233 232 228 222 220 221 223 224 225 225 225 222 220 217 214 211 209 210 212 211 211 212 213 214 215 217 220 221 223 224 225 225 225 224 225 226 229 231 234 238 239 240 243
233 235 238 242 244 243 243 246 248 251 253 258 263 257 250 253 254 244 235 232 231 230 230 233 235 233 232 232 232 233 234 234 235 237 238 239 239 242 245 244 240 236 236 236 233 228 225 224 224 226 226 226 226 224 222 220 217 215 213 214 215 216 216 215 215 215 215 217 221 224 226 228 228 228 227 226 225 225 227 230 233 237 241 244 248
231 232 234 239 242 241 238 240 243 247 252 256 259 258 254 255 260 257 244 235 236 237 236 233 232 233 234 234 234 236 235 235 236 237 238 240 241 242 245 249 248 244 240 239 237 233 230 229 228 228 227 227 227 226 224 223 220 218 217 217 217 218 219 219 219 218 218 219 222 225 228 230 230 230 229 228 226 226 226 227 228 232 236 241 246
228 229 230 233 238 238 235 236 239 242 247 250 253 256 257 259 263 262 254 243 237 236 237 236 234 234 235 235 237 238 235 234 237 239 240 241 242 242 243 247 251 251 247 244 241 238 235 234 233 232 231 230 229 228 227 227 225 223 222 221 220 219 220 221 222 221 222 223 224 226 229 232 233 232 233 232 229 229 231 231 232 234 238 243 248
225 226 227 228 232 234 234 235 237 239 243 246 249 252 255 258 262 264 262 255 246 238 236 236 236 237 237 236 237 238 235 234 236 237 238 239 240 241 242 244 247 249 250 249 246 242 241 239 237 236 236 234 232 230 230 230 229 227 226 224 223 222 222 223 224 224 224 226 227 229 232 234 233 233 234 234 233 236 238 240 242 243 245 251 256
223 223 224 225 227 230 232 234 237 239 240 243 246 249 251 254 257 261 263 262 256 247 240 238 239 239 240 240 241 239 235 234 234 234 234 235 237 238 239 241 243 244 247 249 249 247 245 243 242 240 239 238 236 234 233 233 232 230 229 227 225 224 223 223 224 225 225 227 228 230 233 234 234 233 234 235 237 241 244 246 247 249 251 256 261
223 223 222 223 225 227 229 232 234 237 239 240 242 245 247 250 252 256 260 262 261 255 248 244 243 243 243 243 243 241 238 238 239 239 235 233 235 236 236 237 239 241 243 245 247 249 248 246 245 244 243 241 239 237 236 236 236 233 232 231 228 227 226 224 225 226 227 229 229 230 232 234 233 233 234 236 239 243 247 250 252 254 255 259 262
224 224 224 224 226 227 229 230 231 233 235 237 239 241 244 247 249 251 254 257 259 260 256 251 247 246 246 246 245 245 243 243 244 245 243 239 237 236 234 234 235 237 239 240 241 244 246 247 247 245 244 243 240 238 237 238 240 238 236 235 232 231 230 229 229 229 230 232 233 232 233 234 234 235 236 238 241 244 248 252 256 260 260 261 263
226 227 227 227 228 229 230 231 232 232 234 235 237 239 241 243 246 248 250 251 253 256 257 256 253 250 248 247 247 246 245 246 245 245 246 247 246 244 239 235 234 234 235 235 236 238 239 243 245 245 245 243 240 239 237 238 241 241 239 238 236 235 235 235 235 236 237 239 241 241 240 239 238 239 240 243 245 247 250 254 258 262 264 264 266
228 229 231 231 231 231 232 233 233 233 234 235 236 237 239 241 243 246 248 249 250 252 254 256 256 252 250 249 249 248 247 248 249 246 243 245 250 252 248 241 237 236 235 233 234 234 234 236 239 241 243 244 242 240 238 238 240 241 241 240 239 239 240 240 242 243 244 245 247 248 247 247 246 245 246 248 250 251 254 257 259 262 264 266 268
230 231 232 233 234 234 234 235 235 235 235 235 236 237 238 239 242 244 246 248 250 251 251 253 254 253 251 249 250 251 249 248 249 249 246 244 245 248 249 245 239 237 236 234 233 234 233 233 235 236 238 241 243 242 240 239 241 242 242 242 242 242 244 245 247 248 249 249 250 252 252 252 253 252 251 252 254 256 258 260 262 263 264 265 268
233 233 234 235 235 235 236 236 237 237 236 236 237 237 238 238 240 242 245 246 248 250 250 252 253 253 252 250 249 250 251 249 249 250 250 249 246 243 243 246 245 242 239 237 237 236 235 233 233 234 234 236 239 242 242 242 243 244 244 244 244 245 246 248 250 252 252 252 253 254 255 255 255 256 256 256 257 259 260 261 263 264 265 266 267
236 235 236 236 237 237 237 237 238 238 238 237 237 238 238 238 239 240 243 245 247 249 250 251 252 252 253 252 250 249 250 250 250 250 249 250 249 245 244 248 251 249 247 248 250 250 248 244 240 238 236 235 236 238 239 241 243 245 245 246 246 247 247 249 251 253 254 254 254 254 253 254 255 256 256 258 259 261 262 263 263 264 265 266 267
239 238 238 238 239 239 238 238 238 239 239 238 238 238 238 238 238 239 240 242 245 246 248 250 251 252 252 253 252 251 251 251 251 250 249 251 252 251 250 250 250 249 249 251 253 253 253 254 252 248 244 241 240 239 239 239 241 244 246 246 247 247 248 249 250 251 252 252 252 252 252 253 254 255 256 257 259 261 262 263 263 263 264 266 267
242 241 240 240 241 240 239 239 239 239 239 239 238 238 238 238 237 237 238 240 242 244 246 248 250 251 251 252 253 253 253 254 254 252 251 252 252 252 252 251 248 246 244 246 248 246 246 249 252 251 248 246 244 243 243 242 243 244 245 245 246 246 246 248 249 249 250 250 250 251 253 253 253 254 255 256 257 259 261 262 263 264 265 267 267
243 242 242 243 243 242 241 241 240 240 240 239 239 239 238 238 237 236 237 238 239 241 243 245 248 249 250 250 252 253 252 253 255 255 253 251 249 249 251 252 251 247 245 247 249 246 245 248 251 250 249 248 247 245 245 245 245 246 246 246 246 246 246 246 247 247 248 249 250 251 252 253 253 253 254 255 257 259 261 263 265 267 268 267 268
244 243 243 244 244 243 243 243 242 242 242 241 240 239 239 239 238 237 236 237 238 239 240 242 244 247 248 248 250 251 252 252 254 256 256 254 250 248 248 249 250 248 247 248 249 246 244 247 250 251 251 251 251 250 247 245 246 247 248 247 247 247 246 246 246 246 247 248 249 250 251 252 253 254 255 256 257 259 261 264 267 268 268 268 269
245 245 245 245 245 245 245 244 243 243 243 243 242 241 240 240 239 238 237 236 237 238 238 239 241 243 245 247 248 250 251 252 253 255 256 257 255 253 250 248 248 248 248 247 248 247 246 246 247 249 250 250 251 252 250 248 247 247 247 248 247 247 247 246 245 246 246 247 248 248 248 249 251 253 256 257 258 259 261 264 267 267 267 268 269
244 244 244 245 246 246 246 246 245 244 244 244 243 243 242 241 240 239 238 237 236 236 237 237 238 240 242 245 247 249 251 252 252 253 254 256 257 256 254 252 251 251 250 248 248 248 248 246 245 246 248 248 247 248 249 248 248 248 248 248 247 246 246 247 246 246 246 247 247 247 247 248 250 252 255 257 259 260 262 264 266 266 267 267 269
245 245 244 244 245 246 247 247 246 245 244 244 244 243 243 242 242 241 240 238 237 236 236 236 237 238 240 242 245 248 250 251 252 253 254 254 255 255 255 255 254 253 253 252 251 249 249 248 246 245 245 246 246 246 245 243 244 245 247 248 249 248 248 247 247 247 247 247 247 247 248 249 250 251 253 256 258 261 263 264 265 266 267 267 269
247 246 245 245 245 245 245 246 247 246 245 245 244 244 244 243 243 243 242 240 239 237 237 236 236 237 238 240 242 245 247 249 251 252 253 253 253 253 254 255 254 254 254 254 253 252 250 250 248 245 243 243 244 245 245 245 245 246 247 248 249 250 250 249 248 248 249 249 249 250 250 250 250 251 253 256 258 261 262 263 263 265 267 268 268
247 247 246 246 246 245 245 246 246 247 246 245 245 244 244 244 244 244 243 242 241 240 238 237 237 237 238 239 240 242 244 246 248 250 251 252 252 252 252 253 253 254 254 254 254 254 252 251 249 247 247 250 251 251 252 253 254 254 254 253 253 252 252 251 249 249 250 251 251 251 251 250 250 251 253 255 257 259 260 261 262 263 264 265 266
247 247 247 247 247 247 247 246 246 247 247 246 246 245 244 244 244 244 244 244 243 242 240 239 238 238 238 239 240 240 242 244 246 247 249 250 251 252 252 252 252 252 252 253 253 253 253 253 253 253 255 260 265 263 256 250 251 254 257 258 258 259 258 256 254 252 253 254 254 253 252 252 252 254 255 256 257 258 259 259 259 260 261 263 265
248 248 248 248 248 248 248 248 248 247 247 247 247 246 246 245 244 244 244 245 244 243 242 241 241 240 239 239 240 241 242 243 245 246 248 249 250 251 251 252 252 252 252 252 253 253 253 255 256 256 257 259 264 265 258 248 246 250 253 253 254 255 255 258 260 258 256 255 257 258 258 258 258 257 257 256 254 254 254 255 256 259 261 264 266
251 250 250 249 249 249 249 249 249 249 248 248 248 247 247 246 245 244 244 244 244 244 244 243 243 242 241 240 241 241 242 243 244 246 247 248 249 250 251 251 252 252 253 253 254 255 254 254 255 256 258 258 261 264 261 252 247 248 250 251 250 247 248 254 261 261 256 255 258 262 263 261 258 254 251 248 247 247 248 251 256 259 263 265 267
254 253 253 253 252 251 250 250 250 250 250 249 249 248 248 248 247 246 245 244 244 244 244 244 244 243 243 242 242 242 243 243 244 245 247 248 248 250 251 251 252 252 253 253 254 256 256 256 255 256 258 259 260 263 262 258 252 249 249 251 250 247 246 249 254 256 252 247 248 256 259 256 251 248 245 242 241 242 245 250 256 260 264 268 270
256 256 255 255 255 254 253 252 252 251 251 250 250 250 249 249 248 247 246 245 244 244 244 244 244 244 244 244 244 243 243 244 244 245 246 248 248 249 250 250 251 251 252 253 254 255 257 258 258 257 258 258 259 261 262 260 256 250 248 249 250 248 246 246 250 254 251 242 238 246 253 252 249 247 246 244 243 245 249 255 259 261 265 269 270
Height
5916 5917 5918 5919 5920 5921 5921 5923 5924 5925 5926 5927 5928 5930 5931 5933 5934 5936 5937 5938 5940 5941 5942 5942 5943 5944 5944 5945 5946 5946 5947 5948 5948 5949 5950 5950 5951 5952 5952 5953 5954 5954 5954 5955 5955 5955 5956 5956 5957 5958 5958 5959 5959 5960 5960 5960 5961 5961 5961 5962 5962 5962 5962 5963 5963 5963 5963 5964 5964 5964 5965 5965 5965 5965 5965 5965 5965 5966 5967 5967 5968 5967 5967 5968 5969
5915 5917 5918 5919 5920 5921 5921 5922 5923 5924 5926 5927 5928 5929 5931 5932 5934 5935 5937 5938 5940 5941 5942 5943 5944 5944 5945 5945 5946 5946 5947 5948 5949 5949 5950 5951 5951 5952 5953 5954 5954 5955 5955 5956 5956 5957 5957 5958 5958 5959 5959 5960 5960 5961 5961 5962 5962 5962 5962 5963 5963 5963 5964 5964 5964 5965 5965 5965 5965 5965 5966 5966 5966 5966 5966 5966 5967 5967 5968 5969 5970 5969 5970 5970 5971
5915 5916 5918 5919 5920 5921 5922 5922 5923 5924 5926 5927 5928 5929 5930 5932 5934 5935 5937 5938 5940 5941 5943 5943 5944 5945 5945 5945 5946 5947 5947 5948 5949 5950 5951 5951 5952 5953 5953 5954 5955 5955 5956 5956 5957 5957 5958 5959 5959 5960 5960 5961 5961 5961 5962 5962 5963 5963 5963 5964 5964 5965 5965 5965 5965 5966 5966 5966 5966 5967 5967 5967 5967 5968 5968 5968 5968 5969 5970 5970 5970 5971 5971 5972 5973
5915 5916 5918 5919 5920 5921 5922 5923 5924 5925 5926 5927 5928 5929 5930 5932 5933 5935 5936 5938 5940 5942 5943 5944 5944 5945 5945 5945 5946 5947 5948 5949 5950 5950 5951 5952 5952 5953 5954 5954 5955 5956 5956 5957 5957 5958 5959 5959 5960 5960 5961 5961 5961 5962 5963 5963 5964 5964 5964 5965 5965 5965 5966 5966 5967 5967 5967 5967 5967 5968 5968 5968 5968 5969 5969 5970 5970 5971 5971 5971 5972 5972 5973 5974 5975
5916 5917 5918 5919 5920 5921 5923 5923 5924 5925 5926 5927 5928 5929 5930 5931 5933 5935 5936 5938 5940 5942 5943 5944 5944 5945 5945 5946 5946 5947 5948 5949 5950 5951 5951 5952 5952 5953 5954 5955 5955 5956 5957 5957 5958 5958 5959 5960 5960 5961 5961 5962 5962 5963 5964 5964 5965 5965 5965 5966 5966 5966 5967 5967 5967 5968 5968 5968 5969 5969 5969 5970 5970 5970 5971 5971 5972 5972 5973 5973 5973 5974 5975 5975 5976
5916 5917 5918 5918 5920 5921 5923 5924 5925 5925 5926 5927 5928 5929 5930 5931 5933 5935 5936 5938 5939 5941 5943 5944 5944 5945 5945 5946 5946 5947 5948 5949 5950 5951 5951 5952 5953 5953 5954 5955 5956 5956 5957 5958 5958 5959 5960 5960 5961 5961 5962 5962 5963 5963 5964 5965 5965 5966 5966 5966 5966 5967 5967 5968 5968 5969 5969 5969 5970 5970 5970 5971 5971 5971 5972 5973 5973 5974 5974 5975 5975 5976 5976 5977 5978
5916 5917 5918 5918 5919 5920 5922 5924 5924 5925 5926 5927 5928 5929 5930 5931 5933 5934 5936 5937 5939 5940 5942 5943 5944 5944 5945 5946 5946 5948 5948 5949 5950 5950 5951 5952 5953 5954 5954 5955 5956 5957 5958 5958 5959 5960 5960 5961 5961 5962 5962 5963 5963 5964 5965 5965 5966 5966 5967 5967 5967 5967 5968 5968 5969 5970 5970 5970 5971 5971 5971 5972 5972 5973 5973 5974 5974 5975 5976 5976 5977 5977 5978 5979 5979
5915 5916 5917 5918 5918 5919 5920 5922 5923 5924 5925 5927 5928 5929 5930 5931 5932 5933 5935 5936 5938 5939 5941 5942 5943 5944 5945 5946 5946 5948 5948 5949 5950 5950 5951 5952 5953 5954 5955 5956 5956 5957 5958 5959 5960 5960 5961 5962 5962 5963 5963 5964 5964 5965 5965 5966 5966 5967 5967 5968 5968 5968 5969 5969 5970 5970 5971 5971 5972 5972 5972 5973 5973 5974 5974 5975 5975 5976 5976 5977 5978 5978 5979 5980 5981
5914 5915 5917 5917 5918 5918 5919 5920 5922 5923 5925 5926 5927 5928 5929 5930 5931 5933 5934 5935 5937 5938 5940 5941 5943 5944 5945 5946 5946 5947 5948 5949 5949 5950 5951 5952 5953 5954 5955 5956 5957 5957 5958 5959 5960 5961 5962 5963 5963 5963 5964 5964 5965 5965 5966 5966 5967 5967 5968 5968 5968 5969 5969 5969 5970 5971 5971 5972 5972 5973 5973 5974 5974 5974 5975 5976 5976 5977 5977 5978 5978 5979 5980 5981 5982
5912 5913 5915 5916 5918 5919 5919 5921 5922 5923 5924 5925 5927 5928 5929 5930 5931 5932 5933 5934 5935 5937 5938 5940 5941 5943 5944 5945 5946 5947 5948 5948 5949 5950 5951 5952 5953 5954 5955 5956 5957 5958 5959 5959 5960 5961 5962 5963 5964 5964 5965 5965 5966 5966 5966 5967 5967 5968 5968 5968 5969 5969 5969 5970 5970 5971 5971 5972 5973 5974 5974 5975 5975 5975 5976 5976 5977 5977 5978 5978 5979 5980 5980 5981 5982
5911 5912 5913 5915 5917 5918 5919 5921 5923 5923 5924 5925 5926 5926 5928 5929 5930 5931 5932 5933 5934 5935 5937 5939 5940 5942 5943 5944 5946 5946 5947 5947 5948 5950 5951 5952 5953 5954 5955 5956 5957 5958 5959 5960 5960 5961 5963 5964 5964 5965 5966 5966 5966 5966 5967 5967 5968 5968 5968 5969 5969 5969 5970 5970 5971 5971 5972 5973 5973 5974 5975 5975 5976 5976 5976 5977 5977 5978 5979 5979 5980 5980 5981 5982 5982
5911 5911 5912 5913 5915 5916 5917 5919 5921 5922 5923 5924 5925 5926 5927 5928 5929 5930 5931 5932 5933 5934 5935 5937 5939 5940 5942 5944 5945 5946 5946 5947 5948 5949 5950 5952 5953 5954 5956 5956 5957 5958 5959 5960 5961 5961 5963 5964 5964 5965 5966 5967 5967 5967 5967 5968 5968 5969 5969 5969 5969 5970 5970 5971 5971 5972 5972 5973 5974 5975 5975 5976 5977 5977 5977 5978 5978 5979 5979 5980 5980 5981 5981 5982 5983
5907 5908 5909 5911 5913 5914 5915 5917 5919 5921 5922 5924 5925 5925 5926 5927 5928 5929 5930 5931 5932 5933 5934 5936 5938 5939 5941 5942 5943 5944 5945 5946 5947 5948 5950 5951 5953 5954 5955 5957 5957 5958 5959 5960 5961 5962 5963 5964 5965 5965 5966 5967 5967 5967 5968 5968 5969 5969 5969 5970 5970 5970 5970 5971 5972 5972 5973 5974 5974 5975 5976 5977 5977 5978 5978 5978 5979 5979 5980 5980 5981 5982 5982 5982 5983
5906 5907 5907 5909 5910 5912 5914 5916 5918 5920 5922 5924 5924 5924 5925 5926 5927 5927 5928 5930 5931 5932 5933 5934 5936 5938 5939 5941 5942 5943 5944 5945 5946 5947 5949 5950 5952 5954 5955 5956 5957 5958 5958 5960 5961 5962 5963 5964 5965 5965 5966 5967 5967 5968 5968 5969 5969 5969 5970 5970 5970 5971 5971 5972 5972 5973 5973 5974 5974 5975 5976 5977 5978 5978 5979 5979 5979 5980 5981 5981 5982 5983 5983 5983 5983
5905 5907 5908 5908 5909 5911 5913 5915 5918 5920 5922 5923 5924 5924 5924 5925 5926 5926 5927 5928 5929 5931 5932 5933 5935 5937 5938 5939 5940 5942 5943 5944 5945 5947 5948 5949 5951 5953 5954 5956 5957 5957 5958 5959 5960 5962 5963 5964 5965 5965 5966 5967 5967 5968 5968 5969 5969 5970 5970 5970 5970 5971 5972 5972 5973 5973 5974 5974 5975 5976 5976 5977 5978 5979 5979 5980 5980 5981 5982 5982 5983 5983 5984 5984 5985
5904 5905 5907 5909 5910 5911 5912 5914 5917 5919 5921 5921 5922 5923 5924 5925 5925 5925 5925 5926 5927 5929 5931 5932 5934 5936 5937 5938 5939 5940 5942 5943 5944 5945 5947 5948 5950 5952 5953 5955 5956 5957 5958 5959 5960 5961 5963 5964 5964 5965 5966 5967 5967 5968 5968 5969 5969 5970 5971 5971 5971 5972 5972 5973 5973 5974 5974 5974 5975 5976 5977 5978 5979 5980 5980 5981 5981 5982 5982 5983 5983 5984 5984 5985 5985
5903 5904 5906 5909 5910 5912 5912 5913 5915 5918 5920 5920 5920 5921 5921 5923 5925 5925 5925 5925 5926 5928 5930 5932 5933 5935 5936 5938 5938 5939 5940 5942 5943 5944 5946 5947 5949 5951 5952 5954 5955 5956 5957 5958 5959 5961 5962 5963 5964 5965 5966 5966 5967 5968 5968 5969 5969 5970 5971 5971 5972 5972 5972 5973 5973 5974 5975 5975 5976 5976 5977 5978 5979 5980 5981 5981 5982 5982 5983 5983 5984 5984 5985 5985 5986
5900 5901 5903 5905 5907 5909 5910 5911 5914 5916 5917 5917 5918 5918 5919 5921 5922 5923 5924 5925 5926 5928 5930 5931 5932 5934 5936 5937 5938 5939 5940 5941 5942 5944 5945 5947 5948 5950 5951 5953 5954 5955 5956 5957 5959 5960 5961 5962 5963 5964 5965 5966 5967 5967 5968 5969 5969 5970 5970 5971 5972 5972 5972 5973 5973 5974 5975 5976 5976 5977 5977 5978 5979 5980 5981 5982 5982 5983 5983 5984 5984 5985 5985 5985 5986
5898 5898 5899 5901 5902 5904 5905 5908 5911 5913 5913 5914 5915 5916 5918 5919 5921 5922 5923 5924 5926 5928 5929 5930 5932 5934 5936 5937 5938 5939 5940 5941 5942 5943 5944 5946 5947 5949 5950 5952 5953 5954 5955 5956 5958 5959 5961 5962 5963 5964 5965 5966 5966 5967 5968 5968 5969 5970 5970 5971 5971 5972 5972 5973 5973 5974 5975 5976 5977 5977 5978 5979 5979 5980 5981 5982 5982 5983 5983 5984 5984 5985 5985 5985 5986
5897 5896 5898 5900 5901 5903 5905 5906 5909 5910 5911 5913 5915 5916 5917 5918 5919 5921 5922 5923 5925 5927 5928 5930 5932 5934 5936 5937 5939 5940 5941 5941 5943 5944 5944 5945 5947 5948 5950 5951 5952 5953 5954 5955 5957 5958 5960 5961 5962 5963 5964 5965 5965 5966 5967 5967 5968 5969 5970 5970 5971 5971 5972 5972 5973 5974 5975 5976 5977 5977 5978 5979 5980 5980 5981 5981 5982 5983 5983 5984 5984 5984 5985 5985 5986
5896 5896 5898 5900 5901 5903 5906 5907 5907 5907 5909 5912 5915 5916 5917 5917 5918 5919 5921 5922 5924 5925 5926 5928 5930 5932 5934 5936 5938 5940 5941 5942 5943 5944 5945 5946 5946 5948 5949 5950 5951 5952 5953 5955 5956 5957 5958 5959 5961 5962 5963 5964 5965 5965 5966 5967 5968 5968 5969 5970 5970 5971 5971 5972 5973 5974 5975 5976 5977 5977 5978 5979 5980 5980 5981 5981 5982 5983 5983 5983 5984 5984 5984 5985 5985
5895 5896 5897 5899 5901 5903 5905 5906 5906 5906 5908 5910 5912 5914 5917 5918 5917 5917 5918 5920 5921 5923 5925 5926 5928 5929 5931 5933 5936 5938 5940 5941 5943 5944 5945 5946 5946 5947 5948 5950 5951 5952 5952 5954 5955 5956 5957 5958 5960 5961 5962 5963 5964 5965 5966 5966 5967 5968 5968 5969 5970 5970 5971 5972 5972 5973 5974 5975 5976 5977 5978 5979 5979 5980 5981 5981 5982 5982 5983 5983 5983 5984 5984 5984 5985
5894 5895 5896 5898 5899 5901 5902 5904 5905 5906 5907 5908 5909 5911 5914 5915 5915 5914 5916 5918 5920 5922 5924 5925 5926 5928 5930 5932 5934 5935 5937 5939 5940 5942 5944 5946 5946 5947 5948 5949 5950 5951 5952 5953 5954 5955 5956 5957 5959 5960 5961 5962 5963 5964 5965 5965 5966 5967 5968 5968 5969 5970 5970 5971 5972 5973 5974 5975 5976 5977 5977 5978 5979 5980 5980 5981 5982 5982 5982 5983 5983 5983 5983 5984 5984
5892 5893 5894 5896 5897 5899 5900 5901 5903 5904 5905 5907 5909 5910 5911 5911 5912 5913 5915 5916 5918 5920 5922 5923 5924 5927 5929 5932 5933 5934 5935 5937 5938 5940 5942 5944 5945 5946 5947 5948 5949 5950 5951 5952 5953 5954 5955 5956 5958 5959 5960 5961 5962 5963 5964 5965 5966 5966 5967 5968 5968 5969 5970 5970 5971 5972 5973 5974 5975 5976 5977 5977 5978 5979 5980 5980 5981 5981 5982 5982 5982 5982 5983 5983 5983
5890 5892 5893 5894 5895 5896 5898 5900 5900 5901 5902 5905 5907 5908 5907 5908 5911 5913 5914 5914 5916 5918 5921 5922 5923 5925 5928 5930 5931 5933 5934 5935 5937 5938 5940 5942 5944 5945 5946 5947 5948 5949 5950 5951 5952 5953 5954 5955 5956 5958 5959 5960 5961 5962 5963 5964 5965 5966 5966 5967 5968 5968 5969 5970 5971 5971 5973 5974 5974 5975 5976 5977 5977 5978 5979 5979 5980 5980 5981 5981 5981 5981 5982 5982 5982
5889 5890 5891 5892 5893 5894 5896 5898 5899 5899 5899 5901 5902 5903 5903 5904 5906 5910 5912 5912 5913 5915 5918 5921 5922 5924 5926 5928 5929 5930 5932 5933 5935 5937 5938 5940 5942 5943 5945 5946 5947 5948 5949 5951 5952 5953 5954 5954 5955 5957 5958 5959 5960 5961 5962 5963 5963 5964 5965 5966 5967 5968 5969 5969 5970 5971 5972 5973 5974 5975 5975 5976 5976 5977 5978 5978 5979 5979 5979 5980 5980 5980 5980 5980 5981
5886 5888 5889 5890 5891 5892 5893 5895 5896 5897 5898 5899 5900 5901 5902 5902 5902 5905 5909 5912 5913 5913 5915 5919 5921 5922 5924 5926 5926 5928 5929 5931 5933 5934 5936 5938 5940 5942 5943 5944 5945 5947 5948 5949 5951 5952 5953 5954 5955 5956 5957 5958 5959 5960 5961 5962 5962 5963 5964 5965 5966 5967 5968 5969 5970 5971 5971 5972 5973 5974 5975 5975 5976 5976 5977 5977 5978 5978 5978 5978 5978 5979 5979 5979 5979
5883 5885 5887 5888 5889 5890 5891 5893 5894 5895 5896 5897 5899 5900 5901 5901 5901 5902 5906 5910 5913 5914 5915 5917 5919 5920 5921 5923 5924 5925 5927 5928 5930 5932 5933 5936 5938 5940 5942 5943 5944 5946 5947 5948 5949 5951 5952 5953 5954 5955 5956 5957 5958 5959 5960 5960 5961 5962 5962 5963 5964 5965 5967 5968 5969 5970 5971 5972 5973 5973 5974 5975 5975 5976 5976 5977 5977 5977 5977 5978 5978 5978 5978 5978 5978
5880 5882 5884 5886 5887 5888 5889 5890 5892 5893 5894 5895 5897 5898 5899 5900 5901 5901 5903 5907 5910 5912 5914 5915 5917 5918 5919 5921 5922 5923 5924 5926 5928 5929 5931 5933 5935 5937 5939 5941 5942 5944 5945 5946 5948 5949 5951 5952 5953 5954 5955 5956 5957 5958 5959 5959 5960 5960 5961 5962 5963 5964 5965 5967 5968 5969 5970 5971 5972 5973 5973 5974 5975 5975 5976 5976 5976 5977 5977 5977 5977 5977 5977 5977 5977
5875 5878 5880 5882 5883 5884 5886 5888 5889 5890 5892 5893 5895 5896 5897 5898 5899 5900 5901 5904 5906 5909 5911 5912 5914 5916 5917 5918 5920 5921 5922 5923 5925 5926 5928 5930 5932 5934 5936 5938 5940 5942 5943 5944 5946 5948 5949 5950 5952 5953 5954 5955 5956 5957 5958 5958 5959 5959 5960 5960 5961 5963 5964 5965 5966 5968 5969 5970 5971 5971 5972 5973 5973 5974 5975 5975 5975 5976 5976 5976 5976 5976 5976 5976 5976
5871 5873 5875 5877 5879 5881 5882 5884 5886 5887 5889 5891 5892 5893 5895 5896 5897 5898 5900 5901 5903 5906 5908 5910 5911 5912 5913 5915 5916 5918 5920 5921 5923 5924 5925 5926 5928 5930 5932 5934 5937 5939 5940 5942 5944 5945 5947 5948 5950 5951 5952 5954 5955 5956 5957 5957 5958 5958 5959 5959 5960 5961 5962 5964 5965 5966 5967 5968 5969 5970 5971 5971 5972 5973 5974 5974 5974 5975 5975 5975 5975 5975 5975 5975 5975
5867 5869 5871 5873 5875 5877 5879 5881 5883 5884 5886 5887 5889 5890 5892 5893 5894 5896 5898 5899 5900 5902 5905 5907 5909 5910 5911 5912 5914 5915 5917 5919 5921 5922 5923 5924 5925 5926 5928 5930 5932 5935 5936 5939 5941 5943 5944 5946 5947 5949 5950 5952 5953 5954 5955 5956 5956 5957 5958 5958 5959 5960 5961 5962 5963 5964 5965 5966 5967 5968 5969 5969 5970 5971 5972 5972 5973 5973 5973 5974 5974 5974 5974 5974 5974
5864 5865 5867 5870 5871 5873 5875 5877 5879 5881 5883 5884 5885 5887 5888 5890 5891 5893 5895 5896 5898 5899 5901 5903 5906 5907 5909 5910 5911 5912 5913 5915 5917 5919 5920 5922 5924 5925 5926 5927 5928 5930 5932 5934 5937 5939 5941 5942 5944 5946 5947 5949 5950 5952 5953 5954 5955 5955 5956 5957 5958 5959 5960 5961 5962 5963 5964 5964 5965 5966 5967 5968 5968 5969 5970 5971 5971 5972 5972 5972 5972 5972 5972 5972 5972
5859 5861 5863 5865 5868 5870 5872 5874 5876 5878 5880 5881 5883 5884 5885 5887 5888 5890 5891 5893 5895 5897 5899 5900 5902 5904 5905 5907 5907 5907 5910 5912 5913 5914 5915 5918 5921 5924 5925 5925 5925 5926 5927 5930 5932 5934 5936 5938 5940 5943 5944 5946 5947 5949 5951 5952 5952 5953 5954 5955 5956 5957 5958 5959 5960 5961 5962 5963 5963 5964 5965 5966 5966 5967 5968 5968 5969 5969 5969 5970 5970 5970 5970 5970 5970
5855 5857 5859 5861 5863 5866 5868 5869 5872 5874 5876 5878 5880 5881 5883 5884 5885 5886 5888 5890 5891 5893 5895 5897 5898 5899 5901 5902 5903 5904 5906 5907 5908 5910 5911 5913 5916 5919 5921 5923 5923 5923 5924 5925 5927 5929 5932 5934 5937 5938 5940 5942 5944 5945 5947 5949 5949 5950 5951 5952 5954 5955 5956 5957 5958 5959 5960 5961 5961 5962 5963 5963 5964 5965 5965 5965 5966 5966 5967 5967 5968 5968 5968 5968 5968
5850 5852 5854 5856 5858 5861 5863 5865 5867 5869 5871 5873 5875 5877 5879 5881 5882 5883 5885 5886 5888 5889 5891 5893 5894 5895 5896 5898 5899 5900 5902 5902 5904 5907 5909 5910 5911 5913 5916 5919 5921 5923 5923 5923 5925 5927 5929 5931 5933 5935 5937 5939 5940 5942 5944 5945 5946 5947 5948 5950 5952 5953 5954 5955 5956 5957 5957 5958 5959 5960 5961 5961 5961 5962 5962 5962 5963 5963 5963 5964 5965 5965 5965 5965 5966
5844 5847 5848 5851 5853 5855 5857 5859 5861 5864 5866 5868 5871 5873 5875 5877 5879 5880 5881 5883 5884 5886 5888 5889 5890 5891 5893 5894 5896 5896 5896 5898 5901 5903 5906 5907 5908 5910 5913 5917 5920 5923 5925 5926 5928 5929 5930 5930 5932 5933 5935 5937 5937 5938 5940 5941 5942 5943 5944 5947 5949 5950 5951 5952 5953 5954 5954 5955 5956 5957 5957 5958 5959 5959 5959 5959 5959 5959 5960 5961 5961 5962 5962 5962 5963
5839 5841 5843 5846 5848 5849 5852 5854 5856 5858 5860 5863 5865 5867 5869 5872 5874 5876 5877 5878 5880 5882 5884 5885 5886 5888 5890 5891 5892 5892 5892 5894 5897 5899 5900 5902 5905 5909 5912 5914 5916 5919 5922 5923 5925 5927 5928 5929 5930 5931 5933 5935 5935 5936 5936 5937 5938 5939 5941 5943 5945 5946 5948 5949 5950 5950 5951 5952 5952 5953 5954 5954 5955 5955 5955 5955 5955 5955 5956 5957 5957 5958 5959 5959 5959
5832 5835 5838 5840 5841 5843 5846 5848 5850 5853 5855 5857 5859 5861 5864 5866 5868 5871 5872 5874 5876 5877 5879 5880 5882 5884 5886 5887 5887 5888 5888 5890 5892 5894 5895 5898 5903 5906 5908 5909 5911 5914 5916 5917 5917 5919 5921 5922 5924 5926 5928 5930 5932 5933 5934 5935 5935 5936 5937 5939 5940 5942 5944 5945 5946 5946 5947 5948 5949 5949 5950 5951 5951 5951 5951 5951 5951 5951 5951 5952 5953 5954 5956 5956 5955
5826 5829 5832 5834 5835 5837 5840 5842 5845 5847 5849 5851 5854 5856 5858 5860 5862 5865 5867 5869 5871 5872 5874 5876 5877 5879 5881 5882 5883 5883 5884 5885 5888 5890 5892 5896 5900 5902 5903 5904 5907 5910 5911 5912 5913 5915 5917 5918 5919 5921 5923 5925 5926 5928 5929 5931 5932 5932 5933 5934 5936 5938 5940 5941 5941 5942 5943 5944 5945 5945 5946 5947 5947 5947 5947 5947 5947 5947 5948 5948 5949 5951 5952 5952 5951
5820 5823 5825 5826 5829 5832 5834 5836 5839 5841 5842 5845 5848 5850 5852 5854 5856 5859 5861 5863 5865 5866 5868 5870 5871 5873 5875 5877 5877 5878 5879 5881 5883 5885 5889 5892 5895 5898 5899 5899 5901 5903 5906 5907 5909 5911 5913 5914 5915 5917 5919 5921 5922 5923 5925 5926 5927 5928 5929 5930 5932 5934 5935 5936 5936 5937 5938 5939 5940 5941 5941 5942 5942 5942 5942 5943 5943 5944 5945 5945 5946 5948 5948 5948 5947
5814 5817 5818 5820 5823 5826 5828 5830 5833 5834 5836 5839 5841 5844 5846 5848 5850 5852 5855 5857 5859 5861 5863 5865 5866 5868 5869 5871 5872 5873 5874 5875 5877 5880 5883 5886 5889 5892 5893 5894 5896 5898 5900 5903 5904 5906 5909 5910 5912 5913 5915 5916 5918 5919 5920 5921 5922 5923 5923 5924 5926 5928 5930 5930 5932 5933 5934 5934 5935 5935 5936 5937 5938 5938 5938 5939 5940 5941 5942 5942 5944 5944 5944 5943 5943
5808 5810 5812 5815 5817 5819 5821 5823 5825 5828 5830 5832 5835 5837 5840 5842 5844 5846 5848 5851 5853 5855 5857 5859 5861 5862 5863 5865 5867 5868 5869 5871 5872 5874 5878 5881 5884 5886 5888 5890 5893 5894 5896 5899 5901 5903 5904 5906 5908 5909 5910 5911 5912 5913 5913 5915 5916 5918 5918 5919 5921 5922 5923 5925 5927 5928 5929 5929 5930 5930 5932 5933 5934 5935 5935 5935 5936 5937 5939 5940 5940 5940 5940 5940 5939
5800 5803 5806 5809 5811 5813 5815 5816 5818 5821 5823 5825 5828 5831 5833 5835 5837 5839 5842 5845 5847 5849 5851 5853 5854 5856 5858 5859 5861 5862 5864 5866 5867 5869 5872 5875 5878 5880 5882 5885 5888 5890 5892 5894 5896 5898 5899 5902 5903 5904 5905 5905 5906 5906 5906 5908 5910 5912 5913 5914 5915 5917 5918 5919 5921 5923 5923 5924 5924 5925 5927 5929 5930 5930 5930 5931 5932 5934 5935 5936 5936 5935 5935 5936 5936
5793 5795 5798 5801 5804 5806 5808 5809 5811 5813 5816 5819 5821 5824 5826 5828 5830 5832 5835 5838 5840 5842 5845 5847 5848 5850 5852 5854 5855 5857 5858 5860 5862 5864 5866 5869 5872 5875 5876 5879 5882 5885 5887 5890 5891 5892 5894 5896 5897 5897 5897 5898 5898 5899 5901 5904 5906 5907 5908 5909 5910 5911 5912 5913 5915 5917 5918 5919 5920 5921 5923 5924 5925 5925 5926 5927 5928 5929 5930 5931 5931 5931 5931 5932 5932
5786 5788 5790 5792 5795 5798 5800 5802 5804 5805 5808 5811 5814 5817 5820 5822 5823 5825 5828 5830 5833 5836 5838 5840 5842 5844 5846 5848 5849 5851 5852 5854 5856 5858 5861 5863 5866 5869 5871 5873 5876 5879 5881 5884 5886 5886 5888 5889 5890 5890 5892 5893 5895 5898 5901 5904 5904 5904 5904 5904 5905 5906 5906 5907 5909 5911 5913 5914 5916 5917 5917 5917 5919 5920 5922 5922 5923 5924 5925 5926 5927 5927 5927 5927 5927
5779 5780 5783 5785 5787 5789 5792 5794 5797 5798 5800 5803 5806 5809 5812 5814 5816 5818 5820 5823 5826 5829 5831 5834 5836 5838 5840 5841 5843 5845 5847 5848 5850 5853 5855 5858 5860 5863 5865 5868 5870 5873 5875 5877 5879 5881 5881 5883 5884 5886 5888 5891 5893 5895 5898 5899 5898 5899 5900 5900 5900 5901 5902 5903 5905 5907 5909 5910 5912 5911 5912 5913 5915 5917 5917 5918 5919 5920 5920 5921 5922 5922 5922 5922 5923
5771 5773 5776 5778 5779 5781 5783 5785 5788 5790 5792 5795 5798 5801 5803 5806 5809 5810 5812 5815 5818 5821 5824 5827 5829 5831 5833 5835 5837 5839 5841 5843 5844 5846 5849 5852 5855 5858 5860 5862 5865 5867 5869 5871 5873 5874 5876 5878 5880 5882 5885 5888 5889 5890 5891 5891 5891 5893 5894 5894 5894 5896 5897 5899 5902 5904 5904 5905 5907 5908 5910 5912 5913 5913 5913 5914 5914 5915 5915 5916 5917 5917 5918 5918 5918
5764 5767 5769 5771 5772 5774 5776 5778 5780 5782 5784 5787 5789 5792 5794 5797 5799 5802 5804 5807 5810 5813 5816 5819 5822 5824 5826 5829 5831 5833 5835 5837 5839 5840 5843 5846 5849 5852 5854 5857 5859 5861 5864 5865 5867 5868 5870 5871 5874 5877 5880 5883 5884 5884 5884 5886 5887 5888 5889 5889 5890 5891 5892 5895 5898 5899 5899 5899 5901 5905 5908 5910 5910 5909 5909 5909 5910 5910 5911 5912 5913 5913 5914 5914 5914
5757 5759 5761 5763 5765 5766 5768 5770 5772 5773 5775 5778 5780 5782 5784 5787 5790 5792 5795 5798 5801 5805 5808 5811 5814 5816 5819 5821 5823 5826 5828 5830 5833 5835 5836 5839 5842 5845 5848 5851 5854 5856 5858 5860 5861 5863 5864 5866 5869 5872 5875 5878 5880 5880 5879 5881 5882 5883 5884 5885 5886 5887 5889 5890 5890 5892 5894 5895 5896 5900 5904 5906 5906 5905 5905 5905 5906 5906 5907 5908 5909 5909 5910 5910 5910
5749 5751 5753 5755 5756 5758 5760 5762 5764 5765 5767 5769 5771 5773 5774 5777 5779 5782 5785 5789 5792 5796 5800 5803 5805 5808 5810 5813 5815 5818 5821 5823 5826 5828 5830 5832 5835 5838 5841 5844 5847 5849 5852 5854 5855 5858 5859 5861 5864 5867 5869 5872 5874 5875 5875 5875 5877 5878 5879 5879 5879 5881 5884 5885 5885 5887 5891 5893 5893 5896 5900 5902 5902 5901 5901 5902 5902 5903 5904 5905 5905 5905 5906 5906 5907